Regional Weather Roundup
Issued by NWS

Home | Current Version | Previous Version | Text Only | Print | Product List | Glossary Off
Versions: 1 2 3 4 5 6 7 8 9 10 11 12 13 14 15 16 17 18 19 20 21 22 23 24 25 26 27 28 29 30 31 32 33 34 35 36 37 38 39 40 41 42 43 44 45 46 47 48 49 50

000
ASUS45 KBOU 071510
RWRCO

WEATHER ROUNDUP FOR COLORADO
NATIONAL WEATHER SERVICE DENVER/BOULDER CO
900 AM MDT TUE JUL 07 2015

NOTE: "FAIR" INDICATES FEW OR NO CLOUDS BELOW 12000 FEET WITH NO
SIGNIFICANT WEATHER AND/OR OBSTRUCTIONS TO VISIBILITY.

COZ001>005-013-030-031-071600-
...NORTHWEST COLORADO...

CITY           SKY/WX    TMP DP  RH WIND       PRES   REMARKS
CRAIG          NOT AVBL
HAYDEN         CLOUDY    57  50  77 CALM      30.24R
MEEKER         CLOUDY    61  53  75 CALM      30.22S
MOUNT WERNER   NOT AVBL
STEAMBOAT SPGS CLOUDY    55  53  90 CALM      30.25S
WALDEN         CLOUDY    54  46  76 CALM      30.32S
$$

COZ006>008-011-071600-
...WEST CENTRAL VALLEYS...

CITY           SKY/WX    TMP DP  RH WIND       PRES   REMARKS
GRAND JUNCTION CLOUDY    68  52  56 SW3       30.14R
MONTROSE       CLOUDY    66  48  52 SW3       30.20S
EAGLE          PTSUNNY   59  54  82 VRB5      30.26S
RIFLE          LGT RAIN  63  56  78 SE5       30.18R
DELTA          PTSUNNY   67  53  60 CALM      30.17R
NUCLA          PTSUNNY   63  50  63 CALM      30.26R
$$

COZ017>023-064>068-071600-
...SOUTHWEST COLORADO...

CITY           SKY/WX    TMP DP  RH WIND       PRES   REMARKS
DURANGO        CLOUDY    64  55  72 VRB7      30.27S
CORTEZ         CLOUDY    69  53  56 W6        30.22R
PAGOSA SPRINGS CLOUDY    54  53  99 E5        30.35R VSB 3/4
TELLURIDE      CLOUDY    57  47  70 W8        30.39S THUNDER
WOLF CREEK PAS NOT AVBL
$$

COZ009-010-012-014-032>034-037-058>063-071600-
...CENTRAL COLORADO...

CITY           SKY/WX    TMP DP  RH WIND       PRES   REMARKS
ASPEN          MOSUNNY   61  49  64 N8        30.26F
BUENA VISTA    CLOUDY    56  50  81 SE7       30.36S
COPPER MTN     CLOUDY    46  41  81 S15       30.56S
BERTHOUD PASS  CLOUDY    37  30  75 W13G25    30.59F
COTTONWOOD PAS NOT AVBL
GUNNISON       PTSUNNY   59  46  63 N7        30.33S
KREMMLING      CLOUDY    55  50  82 CALM      30.30F
LEADVILLE      PTSUNNY   51  46  83 S10       30.42F
MONARCH PASS   FOG       43  43 100 S5        30.66S VSB 1/4
SALIDA         CLOUDY    56  52  86 SE12      30.41R
SUNLIGHT       LGT RAIN  50  46  87 CALM      30.50S
WILKERSON PASS FOG       45  43  93 SW6       30.55S VSB 1/4
$$

COZ069>075-071600-
...SAN LUIS VALLEY/SANGRE DE CRISTO MOUNTAINS...

CITY           SKY/WX    TMP DP  RH WIND       PRES   REMARKS
ALAMOSA        CLOUDY    56  54  93 SE8       30.33R
LA VETA PASS   CLOUDY    45  43  93 MISG      30.47F
SAGUACHE       CLOUDY    55  54  94 S5        30.35S
$$

COZ035-036-038>040-071600-
...NORTHERN COLORADO FRONT RANGE...

CITY           SKY/WX    TMP DP  RH WIND       PRES   REMARKS
DENVER INTL AP CLOUDY    63  52  67 S18G25    30.20F HAZE
DMNS CITY PARK   N/A     62  54  74 SW3       30.20S
AURORA         PTSUNNY   64  53  68 S17       30.22F
FRONT RANGE AP PTSUNNY   61  52  72 S18G25    30.23F HAZE
ERIE MUNI ARPT CLOUDY    62  57  85 CALM      30.20S HAZE
BOULDER MUN AP LGT RAIN  59  59 100 CALM      30.20F
CENTENNIAL     CLOUDY    61  53  75 S20       30.22F HAZE
BROOMFIELD     PTSUNNY   59  55  88 CALM      30.22F FOG
FORT COLLINS   CLOUDY    61  54  77 SE7       30.22F
LONGMONT       CLOUDY    63  57  80 CALM      30.21F HAZE
$$

COZ041-046-047-076>085-087-088-071600-
...PIKES PEAK/PALMER DIVIDE AND SOUTHERN FOOTHILLS...

CITY           SKY/WX    TMP DP  RH WIND       PRES   REMARKS
COLO. SPRINGS  LGT RAIN  55  52  89 SE15      30.31S FOG
A. F. ACADEMY  CLOUDY    52  52  99 SE10      30.30F FOG
ELLICOTT       CLOUDY   N/A N/A N/A S12       30.30S FOG
FALCON         LGT RAIN  52  50  95 S9        30.34S
FORT CARSON    CLOUDY    55  53  92 S10       30.29S FOG
LIMON          CLOUDY    60  52  74 SE14      30.28F HAZE
MONUMENT HILL  CLOUDY    52  50  93 MISG      30.31F FOG
TRINIDAD       LGT RAIN  57  52  83 E8        30.28S
$$

COZ042>045-048>051-090-091-071600-
...NORTHEAST COLORADO...

CITY           SKY/WX    TMP DP  RH WIND       PRES   REMARKS
GREELEY ARPT   CLOUDY    64  52  63 SE13      30.21S
AKRON          CLOUDY    61  51  70 S15       30.25F HAZE
BURLINGTON     MOSUNNY   63  49  60 E10       30.27S HAZE
WRAY           CLOUDY    67  50  54 SE9       30.25F
STERLING       CLOUDY    64  52  63 S13         N/A
HOLYOKE        MOSUNNY   64  52  63 SE10      30.25F
FORT MORGAN    CLOUDY    63  50  63 SE9       30.24S
$$

COZ086-089-092>099-071600-
...SOUTHEAST COLORADO...

CITY           SKY/WX    TMP DP  RH WIND       PRES   REMARKS
PUEBLO         CLOUDY    62  52  69 SE13      30.25S HAZE
LA JUNTA       CLOUDY    64  53  67 E8        30.24F HAZE
LAMAR          PTSUNNY   66  53  63 E12       30.22S HAZE
SPRINGFIELD      N/A     61  53  75 NE9       30.24S
$$


USA.gov is the U.S. government's official web portal to all federal, state and local government web resources and services.